Theta_e
319 320 327 333 337 349 351 346 346 347 350 352 350 353 353 353 357 355 344 345 339 344 345 341 339 339 342 344 342 338 337 338 337 336 342 345 343 338 335 331 329 329 327 321 318 314 312 312 311
318 320 324 326 332 345 345 344 346 347 349 348 347 347 348 353 344 340 344 346 334 337 339 339 339 338 338 339 341 340 338 337 339 344 345 340 336 332 328 321 315 315 315 313 312 310 310 310 312
319 323 323 326 329 340 349 344 341 345 346 349 345 342 346 348 339 342 345 343 343 345 338 343 343 343 343 341 339 338 337 342 345 343 337 333 329 324 318 317 318 323 320 313 312 312 313 315 315
322 321 324 327 329 335 344 343 339 344 345 344 342 350 346 344 342 342 343 345 345 345 341 347 347 346 345 341 339 338 343 342 336 335 332 327 319 316 315 315 314 313 312 313 315 315 315 316 316
321 319 321 323 329 334 338 338 339 342 345 346 348 352 350 345 343 341 343 345 347 346 342 343 339 337 338 339 340 344 339 335 333 329 324 316 315 316 315 314 312 312 316 318 318 317 317 318 318
317 315 319 324 335 333 336 335 341 343 344 346 338 344 344 344 341 340 342 347 348 341 342 340 336 338 340 344 345 343 333 329 327 320 315 314 315 316 315 316 317 319 319 319 319 318 318 319 318
317 314 315 318 332 331 335 334 335 340 342 346 334 343 342 343 340 342 342 346 344 338 340 341 342 345 345 343 342 336 328 326 317 313 314 316 320 320 322 321 321 320 320 320 320 320 319 320 319
315 313 316 320 328 331 330 333 335 337 339 339 336 338 337 341 342 342 342 343 341 339 336 341 347 346 341 338 336 329 323 314 314 315 317 323 326 326 324 323 322 321 321 320 322 321 322 320 320
319 314 325 330 330 328 327 330 335 338 337 339 337 338 340 342 342 341 342 341 343 343 344 344 346 341 335 335 330 320 314 316 325 326 326 330 330 329 328 325 323 324 322 322 323 323 321 320 319
316 318 332 330 327 321 321 327 334 336 340 345 345 341 342 341 341 341 340 343 343 344 347 345 342 338 331 327 320 315 319 323 328 330 329 328 330 329 328 326 325 324 324 324 320 319 320 319 318
318 322 330 330 324 322 322 322 325 328 328 340 345 340 339 342 340 338 337 337 345 344 346 344 340 335 329 323 317 326 331 330 330 328 329 327 327 325 326 325 326 324 323 322 322 320 320 319 318
322 324 327 325 323 324 322 324 324 324 331 338 338 336 337 339 337 337 336 336 338 338 341 341 337 332 327 326 325 327 328 331 329 327 326 325 325 325 325 325 326 325 323 323 321 320 319 318 317
325 323 326 324 324 324 324 323 324 324 333 341 341 336 335 335 336 336 336 336 336 334 336 338 334 331 328 332 330 328 329 330 327 326 325 324 324 324 323 324 326 324 323 322 320 321 318 317 316
322 324 324 324 324 325 325 324 322 326 335 344 337 337 335 337 334 335 334 335 334 332 333 336 336 333 333 332 331 329 328 327 325 324 324 324 324 324 324 324 324 324 323 321 321 318 318 317 315
322 323 322 323 323 325 324 322 327 327 345 343 342 340 339 333 334 335 334 332 332 332 330 334 337 331 332 331 328 327 327 326 325 325 324 324 324 323 322 322 322 322 321 320 319 318 317 315 314
320 321 320 322 324 324 323 322 328 326 348 347 346 345 341 336 335 335 332 329 328 327 329 334 335 330 329 327 326 328 326 326 326 324 324 323 322 323 323 323 321 321 319 319 317 316 314 313 311
319 318 320 325 323 325 323 324 328 328 349 345 341 341 340 338 333 334 332 331 331 331 331 329 328 326 326 327 326 324 322 321 322 322 322 322 322 321 322 321 320 320 319 316 315 315 313 311 311
322 323 324 325 325 325 325 325 323 329 346 343 338 339 338 338 336 333 331 330 329 328 327 325 326 326 326 324 323 322 321 321 321 321 321 322 322 323 322 320 319 319 317 313 315 312 310 312 313
323 324 326 327 324 326 326 325 330 347 347 343 341 338 337 335 334 333 331 328 327 328 328 325 325 322 321 321 321 321 321 321 322 326 325 324 324 322 322 320 319 317 313 312 314 311 311 313 313
328 327 327 326 326 323 323 328 338 337 335 337 339 339 336 334 331 330 330 329 329 326 324 322 322 322 322 324 325 326 326 326 325 325 324 324 323 322 321 320 319 316 312 312 312 311 312 312 312
326 326 326 326 326 324 325 335 338 336 341 337 336 335 334 333 330 327 325 324 325 324 324 324 323 323 322 322 323 321 319 320 321 321 322 321 322 322 320 320 318 316 311 311 312 312 313 312 311
326 326 327 327 324 323 324 327 337 343 341 337 332 329 328 327 324 322 319 318 317 316 316 316 316 316 316 317 318 319 319 321 321 320 319 320 318 316 316 318 318 314 311 311 312 312 313 313 312
326 325 323 324 322 321 324 334 339 343 343 337 332 327 323 319 318 318 317 316 316 316 317 316 317 316 316 316 316 316 317 317 316 316 314 314 315 314 314 315 313 313 313 312 312 313 312 312 312
325 323 324 323 322 326 329 335 348 347 340 335 329 325 320 317 317 316 316 316 316 316 315 314 314 314 314 314 314 316 317 316 316 315 315 315 313 314 313 312 313 314 313 312 312 313 312 312 311
325 323 324 326 327 327 327 346 344 339 336 331 326 320 318 318 317 317 316 316 316 315 315 315 315 314 314 314 314 314 313 314 314 313 312 312 312 313 312 312 312 312 311 311 312 312 312 312 312
325 326 325 331 331 328 326 344 341 333 328 325 321 319 318 318 317 316 317 317 317 316 316 314 314 314 313 312 312 312 311 312 311 311 311 311 311 312 311 312 312 312 311 311 312 311 312 312 311
327 327 323 329 327 324 339 341 336 333 330 326 322 319 317 316 315 316 316 315 315 315 313 314 313 312 311 310 310 310 309 309 310 311 311 311 311 311 311 311 311 311 311 311 311 312 311 311 312
328 326 325 325 330 329 332 338 340 338 332 326 321 319 318 317 317 316 316 315 315 315 313 310 310 309 310 310 309 309 310 310 310 310 310 309 309 310 310 310 310 312 312 312 312 311 311 311 310
327 329 327 327 329 328 329 338 333 331 328 327 322 320 318 317 317 316 316 316 313 310 310 309 308 309 310 309 309 309 308 307 307 309 309 309 310 310 310 310 310 311 311 311 311 310 310 309 310
327 331 329 329 329 325 325 332 329 329 328 325 323 320 319 316 315 316 315 311 310 309 310 309 309 309 309 309 309 309 309 309 308 308 309 310 309 309 310 310 310 310 310 309 309 309 309 309 309
Wind_Speed
11 13 7 2 3 5 3 7 8 6 2 7 7 9 6 3 2 5 25 29 28 28 24 21 20 20 20 20 20 19 19 19 19 20 21 20 18 18 18 18 18 18 17 17 17 17 17 17 17
16 14 7 3 3 3 4 3 2 5 4 12 13 10 5 4 6 12 15 29 25 28 24 22 21 20 21 21 20 20 20 20 21 21 20 20 20 19 18 17 17 17 17 16 17 17 18 18 19
19 8 2 3 3 4 4 6 11 7 7 9 7 11 6 4 13 5 28 29 28 24 23 23 20 20 21 21 21 21 21 21 21 20 20 20 19 18 18 18 17 17 16 17 19 19 19 20 21
8 4 4 1 7 2 8 10 16 9 2 6 4 6 6 14 16 20 32 29 26 24 23 21 21 19 19 21 21 22 21 20 20 20 21 20 19 19 17 16 16 16 18 20 21 21 21 21 22
9 2 2 3 8 4 14 8 10 8 11 9 7 7 6 17 22 30 29 25 26 25 25 23 21 22 21 21 22 20 20 20 20 20 19 19 19 17 16 15 16 17 19 21 22 22 21 21 22
3 3 3 6 6 7 5 10 6 26 20 4 9 7 5 22 27 27 28 30 27 26 25 23 23 22 22 22 21 19 20 20 19 18 18 18 17 15 16 16 16 16 16 19 21 21 19 20 24
4 1 7 10 7 19 4 5 8 14 14 4 15 6 4 13 26 25 27 33 25 27 27 25 25 23 21 20 19 19 19 17 17 17 16 15 15 15 15 15 15 15 13 17 19 19 17 18 19
4 4 9 11 4 14 3 2 10 7 2 20 9 4 7 10 28 26 27 34 32 29 29 28 26 25 24 22 21 20 18 17 15 13 13 12 11 9 9 11 12 11 9 13 17 21 18 18 18
4 1 7 6 3 6 7 4 2 4 12 7 13 8 21 4 28 28 25 31 34 34 34 32 25 23 23 23 22 20 20 18 15 11 8 6 3 4 4 6 8 10 9 11 16 17 16 18 21
5 4 7 8 7 5 7 2 5 4 10 6 12 16 26 13 16 20 2 18 31 39 39 39 36 24 23 23 23 21 18 15 13 10 8 6 2 5 2 5 14 16 13 9 14 20 17 19 22
8 7 8 5 5 10 9 13 5 3 2 16 18 20 18 24 25 32 41 42 8 37 40 40 37 27 26 23 23 21 17 15 12 12 14 15 13 8 14 11 14 14 9 9 13 19 17 19 19
4 8 3 2 5 4 7 6 9 8 1 26 31 35 30 10 21 31 39 44 42 66 24 39 37 29 26 26 23 19 13 13 14 11 9 6 5 5 4 7 14 7 9 12 20 18 16 15 20
3 7 1 2 1 1 6 9 5 9 6 28 29 20 16 14 21 31 46 52 38 51 41 38 24 19 22 21 27 25 23 22 16 10 5 5 8 7 5 7 13 11 13 15 17 12 17 23 24
5 7 9 4 1 2 3 7 9 6 33 22 27 22 20 17 22 21 32 43 36 40 29 16 20 20 25 26 22 20 17 17 17 15 12 7 3 3 5 4 10 13 14 15 14 17 18 19 24
6 5 9 10 5 3 4 10 9 8 32 31 25 21 18 14 15 11 20 32 42 44 33 25 7 12 17 18 21 15 11 8 4 3 4 4 3 0 4 6 8 10 13 13 13 16 20 25 20
8 5 5 13 6 2 6 6 6 11 33 26 25 20 20 14 12 10 18 21 22 19 14 12 7 9 13 15 13 13 13 6 4 2 2 0 3 5 8 6 9 11 12 14 19 19 20 18 19
6 8 7 5 7 3 7 5 4 13 32 26 23 20 17 13 14 7 4 11 13 12 15 15 15 16 12 12 13 9 6 7 5 5 7 9 11 13 9 8 7 7 13 19 16 15 16 17 15
6 2 6 6 5 7 6 6 8 9 31 23 23 21 18 13 14 19 21 21 21 21 18 18 14 9 9 9 7 8 10 12 14 15 16 14 11 5 7 6 9 11 15 16 12 14 14 14 17
7 9 8 5 5 3 4 5 18 27 25 23 21 21 21 14 15 17 21 24 23 22 19 17 14 12 9 11 14 16 18 17 13 13 12 13 9 8 8 10 9 10 11 11 11 14 14 16 17
10 10 8 9 10 8 8 8 25 21 16 20 18 17 20 14 11 16 18 19 21 23 19 18 15 12 10 11 9 7 12 10 12 11 10 9 9 7 7 9 7 9 12 7 7 11 13 15 14
8 9 9 8 9 8 5 10 14 10 21 22 20 19 18 15 13 14 19 20 22 21 17 15 14 13 13 12 11 11 14 17 18 18 14 10 8 7 11 13 7 8 8 6 8 9 8 12 15
6 7 7 9 8 6 1 4 9 8 20 19 16 15 14 14 14 16 17 19 19 20 19 20 20 19 17 17 19 19 18 17 18 16 18 12 14 17 16 13 11 7 6 6 7 9 10 9 14
4 9 8 8 11 8 18 6 4 6 10 12 13 13 10 11 14 11 13 12 17 17 17 14 15 14 13 15 15 17 13 11 13 15 17 14 12 10 5 5 4 4 6 8 9 10 10 10 10
10 13 12 7 4 4 5 4 3 2 4 7 11 9 10 11 11 12 9 9 10 11 13 12 11 9 12 10 9 10 14 15 16 20 17 10 10 4 2 3 5 4 7 8 7 9 11 9 9
9 6 4 6 5 5 7 9 5 12 14 12 10 9 7 5 5 3 2 6 6 4 5 7 9 12 11 16 16 16 16 16 15 12 16 15 17 13 11 8 7 8 7 10 9 9 11 8 7
5 4 4 3 4 9 12 4 5 13 16 14 11 8 6 5 3 2 2 5 7 10 3 11 14 17 17 17 16 16 14 17 19 20 19 19 17 16 17 14 9 9 10 11 9 11 9 7 5
1 2 5 2 4 4 4 5 6 12 13 15 10 9 7 6 5 4 4 9 10 12 9 10 17 19 20 19 19 20 21 20 19 21 21 19 19 16 14 14 10 10 11 11 9 10 7 5 3
2 3 5 4 3 4 3 6 5 8 9 9 6 7 7 5 5 4 9 7 8 13 15 18 18 17 18 20 21 21 19 16 22 20 24 21 21 25 19 14 13 13 10 9 7 2 3 3 4
6 5 4 2 3 3 1 4 7 11 8 6 4 6 6 5 0 3 4 7 14 20 17 20 21 20 19 19 18 16 20 21 19 15 10 13 12 14 17 18 12 8 8 6 6 4 3 5 5
4 2 2 3 4 2 3 3 5 4 5 5 4 6 5 6 2 3 7 15 17 16 16 16 15 17 18 19 21 15 18 18 18 16 17 14 13 13 15 14 15 10 9 10 10 9 10 13 12
Wind_Direction
344 340 293 250 92 68 223 209 172 258 50 66 69 100 108 353 83 163 131 131 138 141 142 142 139 135 129 126 127 126 125 122 117 112 107 106 107 101 97 94 86 80 74 67 61 55 47 39 32
333 336 236 249 126 80 265 136 212 132 150 112 114 122 62 67 74 118 111 139 138 139 143 142 143 139 136 133 131 130 127 122 117 113 114 113 109 105 99 93 88 82 75 65 56 49 42 36 33
328 276 93 183 160 171 229 195 213 183 179 157 112 109 117 90 115 73 132 132 132 136 142 141 140 139 135 133 134 132 126 121 123 123 122 117 111 105 100 93 85 76 66 58 50 42 39 38 31
303 10 316 154 276 291 191 222 200 166 101 72 84 80 104 154 140 137 139 137 139 144 142 138 138 134 132 131 130 126 128 130 127 126 121 117 113 107 99 88 77 69 62 54 46 41 38 38 30
296 319 309 288 249 265 221 140 133 170 79 76 83 3 95 131 141 143 144 142 137 144 144 144 142 139 136 130 127 133 131 128 127 125 122 119 112 101 89 78 71 66 59 53 47 44 44 38 28
326 107 318 298 317 325 124 120 103 91 113 104 66 89 311 128 138 154 150 141 148 142 145 142 140 136 131 133 137 137 133 133 129 128 122 115 107 97 81 71 67 64 61 53 49 43 46 38 28
190 63 260 278 292 290 122 154 113 127 128 171 139 123 222 155 151 165 156 151 145 143 141 141 136 137 140 141 136 136 133 130 127 124 117 113 102 88 73 65 59 54 63 52 47 37 34 32 21
203 120 289 269 278 270 193 127 161 137 150 127 114 100 314 175 163 174 157 147 151 149 148 143 145 144 141 140 141 136 130 123 118 115 116 104 97 77 73 61 57 52 47 47 38 32 37 24 10
227 44 263 260 341 191 209 136 235 130 125 141 154 131 51 174 165 175 166 153 145 147 149 149 146 140 140 138 137 132 129 122 113 106 121 117 82 122 24 53 29 25 22 44 31 27 22 -0 351
154 137 299 261 319 2 356 32 189 141 111 91 120 70 89 300 256 190 191 169 161 158 158 149 141 140 140 140 139 135 133 130 110 87 100 71 90 52 23 47 24 20 51 62 36 14 5 357 356
225 202 245 324 12 14 345 326 259 48 5 159 121 110 106 244 7 43 31 16 304 171 150 144 142 135 141 145 143 145 147 139 128 113 103 89 104 90 67 46 21 23 78 29 9 4 1 357 1
263 267 225 330 46 347 320 314 351 21 153 127 130 147 157 129 100 98 69 44 31 31 66 132 136 142 144 152 157 158 174 160 135 134 135 128 135 98 54 44 26 43 14 3 7 10 358 351 345
311 297 287 122 302 232 355 324 342 324 101 130 125 94 100 137 111 85 94 83 57 62 40 47 122 133 148 128 125 116 104 126 136 136 139 117 77 54 23 30 20 15 359 355 5 1 344 339 340
319 307 322 319 107 343 61 313 359 360 73 119 93 90 94 77 78 97 97 106 115 114 120 72 67 99 122 123 129 126 126 128 115 99 85 89 86 74 46 14 16 9 4 2 4 352 343 343 340
309 344 308 288 249 113 81 341 37 65 82 81 89 103 86 85 66 101 116 122 134 135 140 173 68 127 129 133 128 113 95 100 100 41 136 109 94 100 8 340 337 351 342 337 338 338 332 338 342
309 295 280 269 147 180 100 297 42 70 91 89 85 85 92 93 81 94 125 135 133 136 138 124 151 115 109 90 76 27 14 20 61 105 96 182 316 345 12 18 348 354 15 358 342 338 339 343 338
299 258 249 278 100 101 68 337 85 80 104 97 93 91 83 69 59 65 136 113 105 123 115 110 104 78 62 38 53 63 50 41 19 350 349 344 334 346 333 346 5 358 349 344 337 337 344 348 347
317 282 19 79 35 51 22 343 320 93 94 97 95 93 87 72 76 81 91 98 107 104 104 94 89 75 72 76 57 31 3 359 354 343 337 344 333 338 317 334 332 333 340 344 338 348 356 345 340
339 344 33 108 38 62 8 317 15 92 92 95 95 102 104 86 76 81 97 103 106 102 96 86 84 67 58 36 18 351 341 357 353 352 333 329 304 283 284 303 323 330 341 344 338 348 351 344 342
30 34 359 347 2 21 346 51 60 61 75 81 81 85 91 97 87 76 77 89 92 84 78 71 68 62 51 44 32 11 0 0 337 324 347 329 284 256 294 285 301 310 333 331 331 344 343 332 343
49 28 2 339 327 333 322 64 65 65 74 61 55 72 74 86 75 59 60 57 70 73 66 59 50 43 39 32 23 15 9 352 7 345 347 347 322 291 302 281 266 272 310 309 323 332 338 327 341
8 356 339 325 353 300 44 270 54 70 67 65 63 58 62 70 68 63 59 58 60 63 62 58 47 40 26 28 20 11 10 350 334 336 339 329 317 310 303 277 235 268 299 303 317 318 322 321 321
328 25 356 321 306 287 276 92 191 100 76 76 75 60 65 70 87 79 77 83 78 68 54 43 63 46 22 18 4 339 321 307 311 319 320 321 332 334 307 201 247 291 315 309 302 316 319 321 325
16 3 336 331 300 16 7 93 37 5 104 82 70 59 63 63 61 64 70 71 71 55 58 55 47 35 350 323 316 297 308 331 328 331 334 336 327 302 334 283 266 270 296 308 306 298 307 304 312
3 2 343 10 353 250 353 64 82 56 71 91 93 76 70 73 75 72 68 66 63 77 58 30 9 358 358 350 338 333 335 328 336 343 337 328 322 318 326 287 281 290 308 318 299 292 302 298 283
293 81 128 278 277 280 321 58 87 87 86 83 104 135 136 125 132 178 275 312 323 9 32 14 7 17 19 23 16 1 355 345 335 329 328 322 320 318 321 313 287 305 304 300 283 281 280 267 273
325 20 269 191 302 29 128 90 115 115 121 130 161 160 132 143 134 138 33 6 351 352 352 7 39 17 4 360 351 349 347 347 342 335 332 330 332 321 305 310 312 301 288 289 282 265 260 254 259
2 336 19 2 334 312 83 83 357 122 121 129 139 126 98 99 87 22 16 340 344 343 44 38 22 14 360 353 349 353 2 345 352 346 340 339 342 337 331 327 327 311 298 283 260 293 305 328 291
1 22 30 69 1 242 335 82 50 83 93 107 77 96 133 116 88 26 288 318 38 41 37 21 12 7 355 349 354 357 357 342 343 337 354 353 349 351 350 352 341 9 14 3 32 45 24 11 350
30 233 337 144 255 255 137 89 358 37 103 119 169 182 157 93 53 337 4 62 44 28 16 6 360 4 360 1 355 4 355 1 360 348 351 347 0 11 9 7 11 27 52 37 24 47 42 27 10